Regional Weather Roundup
Issued by NWS San Angelo, TX

Home | Current Version | Previous Version | Text Only | Print | Product List | Glossary On
Versions: 1 2 3 4 5 6 7 8 9 10 11 12 13 14 15 16 17 18 19 20 21 22 23 24 25 26 27 28 29 30 31 32 33 34 35 36 37 38 39 40 41 42 43 44 45 46 47 48 49 50
000
ASUS44 KSJT 250710
RWRSJT
WEST CENTRAL TEXAS REGIONAL WEATHER ROUNDUP
NATIONAL WEATHER SERVICE SAN ANGELO TX
200 AM CDT TUE APR 25 2017

NOTE: "FAIR" INDICATES FEW OR NO CLOUDS BELOW 12,000 FEET WITH NO
SIGNIFICANT WEATHER AND/OR OBSTRUCTIONS TO VISIBILITY.

TXZ049-054-064>066-071>073-076>078-098-099-113-114-127-128-139-140-
154-155-168>170-250800
...LOCATIONS ACROSS WEST CENTRAL TEXAS...

CITY           SKY/WX    TMP DP  RH WIND       PRES   REMARKS
SAN ANGELO     CLOUDY    71  49  45 S22G33    29.60R
ABILENE        CLOUDY    67  52  58 S17G26    29.57S
DYESS AFB      NOT AVBL
JUNCTION       CLEAR     69  53  56 S8        29.65F
SWEETWATER     CLEAR     68  50  51 S20G25    29.60F
BROWNWOOD      PTCLDY    63  52  67 S5        29.61F
COLEMAN        CLOUDY    64  51  62 SW7       29.62S
SONORA         CLEAR     70  52  52 S12       29.69F
OZONA            N/A     68  50  52 S12G23    29.67S
BRADY          NOT AVBL
$$

TEXAS PANHANDLE/OKLAHOMA PANHANDLE

CITY           SKY/WX    TMP DP  RH WIND       PRES   REMARKS
AMARILLO       CLOUDY    68  24  19 SW18      29.47F
BORGER         MOCLDY    74  23  15 SW20G28   29.40F
CANADIAN       CLOUDY    66  52  61 S21G29    29.37F
DALHART        CLOUDY    61  36  39 W8        29.49F
DUMAS          CLOUDY    59  32  35 W14       29.46S
GUYMON         NOT AVBL
HEREFORD       CLOUDY    65  27  23 W12       29.53S
PAMPA          CLOUDY    64  36  35 SW13      29.42F
PERRYTON       CLEAR     61  52  73 W14       29.41R
$$

SOUTHERN PANHANDLE/SOUTH PLAINS/ROLLING PLAINS

CITY           SKY/WX    TMP DP  RH WIND       PRES   REMARKS
LUBBOCK        CLOUDY    69  47  45 S18G28    29.53F
SNYDER         CLEAR    N/A N/A N/A S14G20    29.59S
CHILDRESS      CLOUDY    72  49  44 S21G28    29.45F
SEMINOLE       SUNNY     64  48  56 S12       29.61F
$$

PERMIAN BASIN

CITY           SKY/WX    TMP DP  RH WIND       PRES   REMARKS
MIDLAND        PTCLDY    70  48  45 S15       29.61F
ODESSA         CLOUDY    70  48  45 S21G29    29.63F
WINK           CLOUDY    66  48  52 SE9       29.59F
$$

FAR WEST/SOUTHWEST MOUNTAINS/TRANS PECOS

CITY           SKY/WX    TMP DP  RH WIND       PRES   REMARKS
ALPINE         CLOUDY    69  14  12 SW9       29.81F
DRYDEN           N/A     66  50  56 N8        29.62F
EL PASO        CLOUDY    75  15  10 SW10G17   29.73S
FORT STOCKTON  CLOUDY    70  47  43 S10       29.65F
GUADALUPE PASS CLOUDY    66  19  16 SW23G30   29.78S
MARFA          CLOUDY    65  14  14 W13       29.80F
PECOS          CLOUDY    65  24  21 S7        29.61S
$$

DALLAS/FORT WORTH METROPLEX

CITY           SKY/WX    TMP DP  RH WIND       PRES   REMARKS
DFW AIRPORT    CLOUDY    68  52  56 S18G26    29.57F
FTW MEACHAM    CLEAR     68  53  58 S18G25    29.57F
DAL-EXECUTIVE  PTCLDY    65  52  62 S10G22    29.60F
GRAND PRAIRIE  CLOUDY    66  51  58 S16G23    29.61F
ADDISON        CLOUDY    66  51  58 S13G20    29.62F
MESQUITE       SUNNY     63  50  63 S14G21    29.63F
LANCASTER      SUNNY     62  51  68 S8        29.64F
$$

NORTH CENTRAL TEXAS

CITY           SKY/WX    TMP DP  RH WIND       PRES   REMARKS
SHRMAN/DENISON SUNNY     63  51  63 S13       29.59F
GAINESVILLE    PTCLDY    62  51  66 S13       29.58F
BRIDGEPORT     SUNNY     66  51  57 S9        29.58S
DENTON         CLEAR     65  52  62 S13       29.57F
WAXAHACHIE     SUNNY     62  53  73 S9        29.64F
GRANBURY       SUNNY     64  53  68 E7        29.60F
$$

WESTERN NORTH TEXAS

CITY           SKY/WX    TMP DP  RH WIND       PRES   REMARKS
WICHITA FALLS  CLOUDY    67  51  56 S15       29.49F
VERNON         MOSUNNY   70  48  46 S15       29.47F
BRECKENRIDGE   CLOUDY    70  52  52 S14G22    29.54F
COMANCHE       CLEAR     66  53  61 S10G16    29.60F
$$

CENTRAL AND SOUTH CENTRAL TEXAS

CITY           SKY/WX    TMP DP  RH WIND       PRES   REMARKS
AUSTIN/BERGSTM CLEAR     62  56  80 S6        29.69F
WACO           CLEAR     64  56  75 S17G25    29.64F
HILLSBORO      SUNNY     64  55  71 S13       29.64F
TEMPLE         CLEAR     63  55  75 S17G26    29.66F
KILLEEN-GRAY   CLEAR     64  55  70 S16       29.63F
FORT HOOD      CLEAR     63  54  73 S10       29.62F
GEORGETOWN     CLEAR     64  52  63 S13       29.67F
LAGO VISTA     FAIR      65  55  71 S13G20    29.69F
SAN MARCOS     PTCLDY    63  55  77 S8        29.70F
NEW BRAUNFELS  PTCLDY    63  56  78 S8        29.69F
RANDOLPH AFB   PTCLDY    64  61  88 S12       29.70F
SAN ANTONIO    PTCLDY    66  58  75 S12       29.71F
STINSON        CLEAR     66  58  75 S7        29.68F
PLEASANTON     NOT AVBL
LA GRANGE      CLEAR     63  57  81 S7        29.70F
GIDDINGS       SUNNY     62  55  75 S9        29.71F
$$

EAST TEXAS

CITY           SKY/WX    TMP DP  RH WIND       PRES   REMARKS
PARIS          CLEAR     59  48  67 SE9       29.65F
CLARKSVILLE    NOT AVBL
TYLER          CLEAR     64  55  72 S14G24    29.68F
LONGVIEW       CLEAR     61  54  77 S9        29.70S
PALESTINE      SUNNY     63  56  77 S12G17    29.71F
NACOGDOCHES    CLEAR     61  54  77 S8        29.72S
$$

TEXAS HILL COUNTRY AND EDWARDS PLATEAU

CITY           SKY/WX    TMP DP  RH WIND       PRES   REMARKS
LLANO          SUNNY     61  54  77 CALM      29.67F
HORSESHOE BAY  FAIR      66  56  70 CALM      29.65F
KERRVILLE      CLEAR     63  57  83 S7        29.71F
FREDERICKSBRG  CLEAR     63  53  70 S6        29.68F
ROCKSPRINGS    SUNNY     66  55  68 S14       29.72F
HONDO          CLEAR     64  57  78 SE6       29.71S
UVALDE         MOSUNNY   61  56  84 CALM      29.70F
DEL RIO        PTCLDY    67  55  65 SE9       29.63F
$$

SOUTHEAST TEXAS

CITY           SKY/WX    TMP DP  RH WIND       PRES   REMARKS
COLLEGE STN    CLEAR     63  55  75 S10       29.71F
CALDWELL       NOT AVBL
CROCKETT       SUNNY     59  55  88 S6        29.75F
BRENHAM        CLEAR     63  57  79 SE7       29.73F
HUNTSVILLE     PTCLDY    64  55  72 S9        29.73S
CONROE         CLEAR     58  54  86 S3        29.75F
HOUSTON BUSH   PTCLDY    65  56  72 S7        29.74F
HOUSTON HOBBY  PTCLDY    64  56  75 S7        29.76F
PERLAND        CLEAR     65  57  75 S5        29.77F
WHARTON        SUNNY     60  56  89 SE5       29.76F
$$

THE UPPER TEXAS COAST

CITY           SKY/WX    TMP DP  RH WIND       PRES   REMARKS
ORANGE         SUNNY     66  58  73 S9        29.79S
PORT ARTHUR    CLEAR     60  55  83 S6        29.77S
GALVESTON      PTCLDY    72  60  66 S17       29.78F
ANGLETON       PTCLDY    62  58  86 S3        29.77F
BAY CITY       MOSUNNY   64  61  90 S3        29.77S
$$

TEXAS COASTAL BEND, RIO GRANDE PLAINS DEEP SOUTH TEXAS

CITY           SKY/WX    TMP DP  RH WIND       PRES   REMARKS
VICTORIA       CLEAR     62  58  86 E5        29.74F
BEEVILLE       FAIR      66  66 100 S7        29.72F
ROCKPORT       MOCLDY    73  63  70 S10       29.72F
PORT ARANSAS   CLOUDY    73  64  72 S13G21    29.73S
PORT LAVACA    MOSUNNY   65  64  96 CALM      29.74F
CORPUS CHRISTI PTCLDY    70  64  81 S9        29.72F
KINGSVILLE NAS CLOUDY    68  65  90 SE8       29.71F
COTULLA        PTCLDY    67  57  70 SE10      29.67F
LAREDO         CLEAR     70  61  73 SE13      29.67F
BROWNSVILLE    CLOUDY    76  67  73 S14       29.73F
PORT ISABEL    MOCLDY    74  67  78 S15       29.72F
HEBBRONVILLE   SUNNY     66  61  84 S6        29.70F
MCALLEN        PTCLDY    73  66  78 SE14      29.70F
WESLACO        CLOUDY    71  66  84 S10G16    29.69F
FALFURRIAS     CLOUDY    68  61  79 SE5       29.70F
EDINBURG       PTSUNNY   71  65  81 SE7       29.70F
$$



USA.gov is the U.S. government's official web portal to all federal, state and local government web resources and services.